Broken Bow, NE

11:48 AM CDT on April 26, 2017 (GMT -0500)
Broken Bow Municipal

Weather History for KBBW - October, 2012

Change the Weather History Date:

Saturday, October 6, 2012

  Actual Average Record
Temperature  
Mean Temperature 33 °F 53 °F  
Max Temperature 43 °F 67 °F 92 °F (1990)
Min Temperature 23 °F 39 °F 15 °F (1952)
Degree Days  
Heating Degree Days 32 12  
Month to date heating degree days 116 67  
Cooling Degree Days 0 0  
Month to date cooling degree days 0 2  
Year to date cooling degree days 1077 764  
Moisture  
Dew Point 21 °F    
Average Humidity 64    
Maximum Humidity 92    
Minimum Humidity 36    
Precipitation  
Precipitation 0.00 in 0.07 in 1.37 in (2008)
Sea Level Pressure  
Sea Level Pressure 30.39 in    
Wind  
Wind Speed 7 mph (NW)    
Max Wind Speed 20 mph    
Max Gust Speed 0 mph    
Visibility 10 miles    
Events      
T = Trace of Precipitation, MM = Missing Value Source: NWS Daily Summary

Daily Weather History Graph

Daily Weather History Graph

Search for Another Location

Airport or City:

Trip Planner

Search our weather history database for the weather conditions in past years. The results will help you decide how hot, cold, wet, or windy it might be!

Date:

Astronomy

Oct. 06, 2012 Rise Set
Actual Time 7:41 AM CDT 7:11 PM CDT
Civil Twilight 7:13 AM CDT 7:38 PM CDT
Nautical Twilight 6:41 AM CDT 8:10 PM CDT
Astronomical Twilight 6:09 AM CDT 8:42 PM CDT
Moon 11:25 PM CDT (10/6) 1:40 PM CDT (10/6)
Length of Visible Light 12h 25m
Length of Day
11h 29m
Waning Gibbous, 65% of the Moon is Illuminated
Oct 6
Waning Gibbous
Oct 8
Last Quarter
Oct 15
New
Oct 21
First Quarter
Oct 29
Full

Hourly Weather History & Observations

Time (CDT) Temp. Windchill Dew Point Humidity Pressure Visibility Wind Dir Wind Speed Gust Speed Precip Events Conditions
12:53 AM 34.0 °F 29.8 °F 19.9 °F 56% 30.38 in 10.0 mi North 4.6 mph - N/A   Mostly Cloudy
1:53 AM 28.0 °F 22.8 °F 17.1 °F 63% 30.37 in 10.0 mi North 4.6 mph - N/A   Clear
2:53 AM 28.0 °F 20.8 °F 18.0 °F 66% 30.38 in 10.0 mi North 6.9 mph - N/A   Clear
3:53 AM 28.0 °F 15.3 °F 18.0 °F 66% 30.38 in 10.0 mi NNE 18.4 mph 87.5 mph N/A   Clear
4:53 AM 26.1 °F 21.9 °F 18.0 °F 71% 30.37 in 10.0 mi WNW 3.5 mph - N/A   Clear
5:53 AM 30.0 °F 25.2 °F 19.0 °F 64% 30.37 in 10.0 mi Variable 4.6 mph - N/A   Clear
6:53 AM 28.9 °F 19.2 °F 19.0 °F 67% 30.36 in 10.0 mi North 11.5 mph 42.6 mph N/A   Partly Cloudy
7:53 AM 28.9 °F - 19.0 °F 67% 30.41 in 10.0 mi Calm Calm - N/A   Overcast
8:53 AM 30.9 °F 27.5 °F 21.0 °F 67% 30.44 in 10.0 mi WSW 3.5 mph - N/A   Overcast
9:53 AM 34.0 °F 29.8 °F 21.0 °F 59% 30.44 in 10.0 mi NW 4.6 mph - N/A   Clear
10:53 AM 36.0 °F 31.1 °F 19.0 °F 50% 30.45 in 10.0 mi NNW 5.8 mph - N/A   Overcast
11:53 AM 36.0 °F 29.0 °F 19.0 °F 50% 30.45 in 10.0 mi North 9.2 mph - N/A   Overcast
12:53 PM 37.9 °F 32.1 °F 19.0 °F 47% 30.43 in 10.0 mi North 8.1 mph - N/A   Mostly Cloudy
1:53 PM 39.0 °F 34.0 °F 18.0 °F 43% 30.43 in 10.0 mi NNW 6.9 mph - N/A   Partly Cloudy
2:53 PM 39.9 °F 33.9 °F 18.0 °F 41% 30.40 in 10.0 mi NNW 9.2 mph - N/A   Clear
3:53 PM 42.8 °F 38.0 °F 17.6 °F 36% 30.33 in 10.0 mi NNW 8.1 mph - N/A   Clear
4:53 PM 42.1 °F 36.1 °F 18.0 °F 38% 30.38 in 10.0 mi WNW 10.4 mph - N/A   Clear
5:53 PM 42.8 °F 38.0 °F 19.4 °F 39% 30.31 in 10.0 mi West 8.1 mph - N/A   Clear
6:53 PM 39.9 °F 35.1 °F 19.0 °F 43% 30.37 in 10.0 mi West 6.9 mph - N/A   Clear
7:53 PM 35.1 °F 29.3 °F 24.1 °F 64% 30.38 in 10.0 mi West 6.9 mph - N/A   Clear
8:53 PM 34.0 °F 26.6 °F 28.9 °F 82% 30.38 in 10.0 mi West 9.2 mph - N/A   Clear
9:53 PM 32.0 °F 24.2 °F 28.0 °F 85% 30.38 in 10.0 mi West 9.2 mph - N/A   Clear
10:53 PM 32.0 °F 24.2 °F 28.0 °F 85% 30.38 in 10.0 mi West 9.2 mph - N/A   Clear
11:53 PM 28.9 °F 20.4 °F 26.1 °F 89% 30.37 in 10.0 mi West 9.2 mph - N/A   Clear